Location: T�chigga el Be�da
(16.4766°N, 9.3887°W)
Time: 14:20:31
(UTC+00:00)

CZ-2C R/B - Pass Details

Date: 27 February 2020
Orbit: 641 x 704 km, 98.4° (Epoch: 29 March)

Event Time Altitude Azimuth Distance (km) Brightness Sun altitude
Rises 19:49:27 0° 21° (NNE) 3,059 6.9 -16.4°
Reaches altitude 10° 19:51:46 10° 27° (NNE) 2,149 6.0 -17.0°
Maximum altitude 19:56:18 47° 101° (E) 918 4.0 -18.1°
Drops below altitude 10° 20:00:52 10° 175° (S) 2,162 6.3 -19.2°
Sets 20:03:11 0° 181° (S) 3,079 7.2 -19.7°
